Weather History for Tekamah, NE

Change the Weather History Date:

Friday, August 8, 2014

  Actual Average Record
Temperature  
Mean Temperature 75 °F -  
Max Temperature 82 °F 87 °F 102 °F (1988)
Min Temperature 69 °F 64 °F 51 °F (1989)
Cooling Degree Days 10    
Growing Degree Days 25 (Base 50)    
Moisture  
Dew Point 67 °F    
Average Humidity 86    
Maximum Humidity 93    
Minimum Humidity 64    
Precipitation  
Precipitation 0.02 in - - ()
Sea Level Pressure  
Sea Level Pressure 29.98 in    
Wind  
Wind Speed 5 mph (ESE)    
Max Wind Speed 12 mph    
Max Gust Speed -    
Visibility 7 miles    
Events Rain    
Averages and records for this station are not official NWS values.
T = Trace of Precipitation, MM = Missing Value Source: NWS Daily Summary

Daily Weather History Graph

Daily Weather History Graph

Search for Another Location

Airport:

Trip Planner

Search our weather history database for the weather conditions in past years. The results will help you decide how hot, cold, wet, or windy it might be!

Date:

Astronomy

Aug. 08, 2014 Rise Set
Actual Time 6:25 AM CDT 8:34 PM CDT
Civil Twilight 5:55 AM CDT 9:04 PM CDT
Nautical Twilight 5:17 AM CDT 9:42 PM CDT
Astronomical Twilight 4:36 AM CDT 10:23 PM CDT
Moon 6:46 PM CDT (8/8) 3:59 AM CDT (8/8)
Length of Visible Light 15h 09m
Length of Day
14h 08m
Waxing Gibbous, 94% of the Moon is Illuminated
Aug 8
Waxing Gibbous
Aug 10
Full
Aug 17
Last Quarter
Aug 25
New
Sep 2
First Quarter

Hourly Weather History & Observations

Time (CDT) Temp. Heat Index Dew Point Humidity Pressure Visibility Wind Dir Wind Speed Gust Speed Precip Events Conditions
12:05 AM 70.0 °F - 68.0 °F 93% 29.98 in 4.0 mi East 4.6 mph - 0.01 in Rain Light Rain
12:27 AM 70.0 °F - 68.0 °F 93% 29.98 in 5.0 mi ESE 5.8 mph - 0.01 in   Overcast
12:36 AM 70.0 °F - 68.0 °F 93% 29.99 in 5.0 mi ESE 4.6 mph - 0.01 in   Overcast
12:54 AM 70.0 °F - 68.0 °F 93% 29.96 in 5.0 mi ESE 4.6 mph - 0.01 in   Overcast
1:09 AM 70.0 °F - 68.0 °F 93% 29.98 in 4.0 mi ESE 6.9 mph - N/A   Overcast
1:18 AM 70.0 °F - 68.0 °F 93% 29.98 in 5.0 mi ESE 4.6 mph - 0.01 in   Overcast
1:54 AM 70.0 °F - 66.9 °F 90% 29.96 in 6.0 mi ESE 5.8 mph - 0.01 in   Overcast
2:29 AM 69.1 °F - 66.9 °F 93% 29.98 in 6.0 mi ESE 5.8 mph - N/A   Overcast
2:54 AM 69.1 °F - 66.9 °F 93% 29.95 in 5.0 mi ESE 5.8 mph - N/A   Overcast
3:14 AM 69.1 °F - 66.9 °F 93% 29.98 in 4.0 mi East 4.6 mph - N/A   Overcast
3:24 AM 69.1 °F - 66.9 °F 93% 29.98 in 5.0 mi East 3.5 mph - N/A   Overcast
3:26 AM 69.1 °F - 66.9 °F 93% 29.98 in 5.0 mi East 4.6 mph - N/A   Overcast
3:54 AM 69.1 °F - 66.9 °F 93% 29.95 in 6.0 mi East 3.5 mph - N/A   Overcast
4:08 AM 69.1 °F - 66.9 °F 93% 29.98 in 5.0 mi East 3.5 mph - N/A   Overcast
4:19 AM 69.1 °F - 66.9 °F 93% 29.98 in 5.0 mi East 4.6 mph - N/A   Overcast
4:54 AM 69.1 °F - 66.9 °F 93% 29.94 in 5.0 mi East 3.5 mph - N/A   Overcast
5:14 AM 69.1 °F - 66.9 °F 93% 29.98 in 6.0 mi East 4.6 mph - N/A   Overcast
5:54 AM 69.1 °F - 66.9 °F 93% 29.95 in 5.0 mi ESE 5.8 mph - N/A   Overcast
6:04 AM 69.1 °F - 66.9 °F 93% 29.98 in 5.0 mi East 3.5 mph - N/A   Overcast
6:54 AM 69.1 °F - 66.9 °F 93% 29.96 in 4.0 mi SE 4.6 mph - 0.00 in   Overcast
7:04 AM 69.1 °F - 66.9 °F 93% 30.00 in 4.0 mi SE 3.5 mph - N/A   Overcast
7:54 AM 70.0 °F - 66.9 °F 90% 29.98 in 4.0 mi ESE 4.6 mph - N/A   Overcast
8:07 AM 70.0 °F - 66.9 °F 90% 30.02 in 5.0 mi ESE 4.6 mph - N/A   Overcast
8:54 AM 70.0 °F - 66.9 °F 90% 29.99 in 5.0 mi ESE 6.9 mph - N/A   Overcast
9:54 AM 70.0 °F - 66.9 °F 90% 30.00 in 6.0 mi ESE 6.9 mph - N/A   Overcast
10:14 AM 71.1 °F - 68.0 °F 90% 30.02 in 5.0 mi East 5.8 mph - N/A   Overcast
10:54 AM 72.0 °F - 68.0 °F 87% 29.99 in 7.0 mi ESE 8.1 mph - N/A   Overcast
11:12 AM 72.0 °F - 66.9 °F 84% 30.03 in 7.0 mi East 9.2 mph - N/A   Overcast
11:31 AM 73.0 °F - 66.9 °F 81% 30.03 in 8.0 mi East 8.1 mph - N/A   Overcast
11:54 AM 73.0 °F - 66.9 °F 81% 30.00 in 9.0 mi ESE 6.9 mph - N/A   Overcast
12:54 PM 77.0 °F - 66.9 °F 71% 29.99 in 10.0 mi North - - N/A   Mostly Cloudy
1:18 PM 77.0 °F - 68.0 °F 74% 30.01 in 10.0 mi ESE 8.1 mph - N/A   Mostly Cloudy
1:32 PM 77.0 °F - 68.0 °F 74% 30.01 in 10.0 mi ESE 6.9 mph - N/A   Overcast
1:54 PM 78.1 °F - 66.9 °F 68% 29.97 in 10.0 mi ESE 11.5 mph - N/A   Scattered Clouds
2:54 PM 80.1 °F 82.3 °F 66.9 °F 64% 29.96 in 10.0 mi SE 11.5 mph - N/A   Scattered Clouds
3:54 PM 81.0 °F 84.1 °F 69.1 °F 67% 29.96 in 10.0 mi SE 9.2 mph - N/A   Scattered Clouds
4:54 PM 81.0 °F 83.8 °F 68.0 °F 65% 29.95 in 10.0 mi SSE 6.9 mph - N/A   Mostly Cloudy
5:54 PM 79.0 °F - 69.1 °F 72% 29.96 in 10.0 mi Calm Calm - N/A   Overcast
6:54 PM 79.0 °F - 69.1 °F 72% 29.96 in 10.0 mi ESE 5.8 mph - N/A   Partly Cloudy
7:54 PM 75.0 °F - 68.0 °F 79% 29.95 in 10.0 mi East 5.8 mph - N/A   Scattered Clouds
8:54 PM 72.0 °F - 68.0 °F 87% 29.96 in 10.0 mi East 5.8 mph - N/A   Scattered Clouds
9:18 PM 73.0 °F - 68.0 °F 84% 30.00 in 10.0 mi East 5.8 mph - N/A   Mostly Cloudy
9:28 PM 72.0 °F - 68.0 °F 87% 30.00 in 10.0 mi East 5.8 mph - N/A   Mostly Cloudy
10:54 PM 71.1 °F - 66.9 °F 87% 29.99 in 6.0 mi ESE 5.8 mph - N/A   Clear